Kalaeloa, HI

5:27 AM HST on June 22, 2017 (GMT -1000)
Kalaeloa (John Rodgers Field)

Weather History for PHJR - December, 2012

Change the Weather History Date:

Monday, December 31, 2012

  Actual Average (PHHI) Record (PHHI)
Temperature  
Mean Temperature 73 °F -  
Max Temperature 82 °F 74 °F 80 °F (2002)
Min Temperature 64 °F 60 °F 59 °F (2002)
Cooling Degree Days 8    
Growing Degree Days 23 (Base 50)    
Moisture  
Dew Point 64 °F    
Average Humidity 73    
Maximum Humidity 87    
Minimum Humidity 49    
Precipitation  
Precipitation 0.00 in - - ()
Sea Level Pressure  
Sea Level Pressure 30.06 in    
Wind  
Wind Speed 3 mph (NNE)    
Max Wind Speed 12 mph    
Max Gust Speed -    
Visibility 10 miles    
Events      
Averages and records for this station are not official NWS values.
T = Trace of Precipitation, MM = Missing Value Source: NWS Daily Summary

Daily Weather History Graph

Daily Weather History Graph

Search for Another Location

Airport or City:

Trip Planner

Search our weather history database for the weather conditions in past years. The results will help you decide how hot, cold, wet, or windy it might be!

Date:

Astronomy

Dec. 31, 2012 Rise Set
Actual Time 7:09 AM HST 6:01 PM HST
Civil Twilight 6:45 AM HST 6:25 PM HST
Nautical Twilight 6:17 AM HST 6:53 PM HST
Astronomical Twilight 5:50 AM HST 7:20 PM HST
Moon 9:15 PM HST (12/31) 9:22 AM HST (12/31)
Length of Visible Light 11h 40m
Length of Day
10h 51m
Waning Gibbous, 89% of the Moon is Illuminated
Dec 31
Waning Gibbous
Jan 4
Last Quarter
Jan 11
New
Jan 18
First Quarter
Jan 26
Full

Hourly Weather History & Observations

Time (HST) Temp. Heat Index Dew Point Humidity Pressure Visibility Wind Dir Wind Speed Gust Speed Precip Events Conditions
12:53 AM 66.9 °F - 63.0 °F 87% 30.05 in 10.0 mi Calm Calm - N/A   Clear
1:53 AM 66.0 °F - 62.1 °F 87% 30.04 in 10.0 mi Calm Calm - N/A   Mostly Cloudy
2:53 AM 66.9 °F - 61.0 °F 81% 30.03 in 10.0 mi Calm Calm - N/A   Mostly Cloudy
3:53 AM 66.9 °F - 61.0 °F 81% 30.03 in 10.0 mi ENE 3.5 mph - N/A   Overcast
4:53 AM 66.9 °F - 62.1 °F 84% 30.02 in 10.0 mi Calm Calm - N/A   Scattered Clouds
5:53 AM 66.0 °F - 61.0 °F 84% 30.03 in 10.0 mi NE 3.5 mph - N/A   Clear
6:53 AM 64.9 °F - 60.1 °F 84% 30.05 in 10.0 mi NNE 3.5 mph - N/A   Scattered Clouds
7:53 AM 66.0 °F - 61.0 °F 84% 30.07 in 10.0 mi ENE 3.5 mph - N/A   Clear
8:53 AM 75.0 °F - 64.0 °F 69% 30.08 in 10.0 mi Calm Calm - N/A   Clear
9:53 AM 77.0 °F - 66.9 °F 71% 30.09 in 10.0 mi SSE 5.8 mph - N/A   Clear
10:53 AM 80.1 °F 82.7 °F 68.0 °F 67% 30.08 in 10.0 mi SSW 5.8 mph - N/A   Clear
11:53 AM 80.1 °F 82.3 °F 66.9 °F 64% 30.07 in 10.0 mi WNW 8.1 mph - N/A   Overcast
12:53 PM 82.0 °F 83.4 °F 64.0 °F 54% 30.04 in 10.0 mi West 8.1 mph - N/A   Overcast
1:53 PM 82.0 °F 84.1 °F 66.0 °F 58% 30.02 in 10.0 mi Variable 3.5 mph - N/A   Overcast
2:53 PM 81.0 °F 83.8 °F 68.0 °F 65% 30.01 in 10.0 mi Calm Calm - N/A   Overcast
3:53 PM 82.9 °F 83.7 °F 62.1 °F 49% 30.02 in 10.0 mi WNW 11.5 mph - N/A   Mostly Cloudy
4:53 PM 78.1 °F - 66.0 °F 66% 30.04 in 10.0 mi Variable 3.5 mph - N/A   Overcast
5:53 PM 75.9 °F - 64.0 °F 67% 30.06 in 10.0 mi ENE 5.8 mph - N/A   Clear
6:53 PM 73.9 °F - 66.0 °F 76% 30.07 in 10.0 mi Variable 3.5 mph - N/A   Clear
7:53 PM 73.9 °F - 66.0 °F 76% 30.10 in 10.0 mi Variable 5.8 mph - N/A   Clear
8:53 PM 73.0 °F - 66.0 °F 79% 30.12 in 10.0 mi Variable 3.5 mph - N/A   Clear
9:53 PM 73.0 °F - 64.9 °F 76% 30.13 in 10.0 mi Variable 3.5 mph - N/A   Clear
10:53 PM 73.0 °F - 64.9 °F 76% 30.13 in 10.0 mi Variable 4.6 mph - N/A   Clear
11:53 PM 72.0 °F - 63.0 °F 73% 30.12 in 10.0 mi Variable 3.5 mph - N/A   Clear